Regional Weather Roundup
Issued by NWS Grand Forks, ND

Home | Current Version | Previous Version | Graphics & Text | Print | Product List | Glossary On
Versions: 1 2 3 4 5 6 7 8 9 10 11 12 13 14 15 16 17 18 19 20 21 22 23 24 25 26 27 28 29 30 31 32 33 34 35 36 37 38 39 40 41 42 43 44 45 46 47 48 49 50
359
ASUS43 KFGF 041731
RWRFGF
PRAIRIE TO PINES  WEATHER ROUNDUP
NATIONAL WEATHER SERVICE EASTERN NORTH DAKOTA/GRAND FORKS ND
1100 AM CST SUN DEC 04 2016

 **SATELLITE DATA USED TO AUGMENT SKY COVER AT AUTOMATED STATIONS**
 *****  WEATHER ACROSS EASTERN NORTH DAKOTA  *****

CITY           SKY/WX    TMP DP  RH WIND       PRES   REMARKS
GRAND FORKS    CLOUDY    32  27  81 W17       29.69S WCI  21
GRAND FRKS AFB CLOUDY    30  26  85 W10       29.69S WCI  21
GRAND FRKS NWS   N/A     32 N/A N/A W5          N/A
DEVILS LAKE    CLOUDY    27  27 100 W21       29.67S FOG     WCI  13
FARGO          CLOUDY    33  31  92 S10       29.72S WCI  25
WAHPETON ARPT  CLOUDY    32  32 100 SW7       29.74F
$$

 ***** WEATHER ACROSS CENTRAL AND WESTERN NORTH DAKOTA  *****

CITY           SKY/WX    TMP DP  RH WIND       PRES   REMARKS
BISMARCK       MOSUNNY   33  27  78 W13       29.77F WCI  24
MINOT          CLOUDY    32  27  81 W15       29.70S WCI  22
JAMESTOWN      CLOUDY    34  28  79 W15       29.71F WCI  24
MINOT AFB      CLOUDY    29  26  89 NW14      29.69S WCI  19
GARRISON         N/A     29  24  82 W12       29.72S WCI  19
WILLISTON      SUNNY     26  21  81 SW6       29.74F WCI  19
DICKINSON      SUNNY     25  17  72 W14       29.73F WCI  13
HETTINGER      SUNNY     28  19  69 W8        29.79F WCI  20
$$

 *****  OTHER AIRPORT OBSERVATIONS IN OUR AREA  *****

CITY           SKY/WX    TMP DP  RH WIND       PRES   REMARKS
WALHALLA         N/A     30  30 100 W9        29.64S WCI  22
GRAFTON AIRPOR CLOUDY    32  30  93 SW12      29.69S WCI  23
VALLEY CITY AR CLOUDY    32  32 100 NW15G24   29.73S WCI  22
CANDO          CLOUDY    28  28 100 W17       29.68S FOG     WCI  16
CAVALIER APRT    N/A     32  28  86 W9        29.64F WCI  24
GWINNER        CLOUDY    36  34  93 W12       29.74S
SHEYENNE NWR     N/A     36  33  88 W8        29.95S
ROLLA          CLOUDY    28  28 100 NW16      29.64S WCI  17
 ***** THE ABOVE OBSERVATIONS ARE NON NWS ARE NOT QUALITY
       CONTROLLED AND MAY MIS-REPORT RAIN FOR SNOW...
$$

  *****  WEATHER ACROSS NORTHERN MINNESOTA  *****

CITY           SKY/WX    TMP DP  RH WIND       PRES   REMARKS
FLAG ISLAND    CLOUDY    30  28  93 SE17      29.71F WCI  18
WARROAD        LGT SNOW  32  28  86 SE12      29.70F WCI  23
ROSEAU         CLOUDY    34  28  80 SE10      29.68F HAZE
HALLOCK        CLOUDY    34  32  93 S9        29.65F FOG
THF RVR FALLS  LGT RAIN  33  32  96 S10       29.70S FOG     WCI  25
BAUDETTE       CLOUDY    30  27  88 SE9       29.74F WCI  22
WASKISH        LGT SNOW  32  30  93 SE7       29.74F
CROOKSTON      CLOUDY    34  34 100 SW9       29.70F FOG
STEPHEN NDAWN    N/A     34  32  93 S10         N/A
GREENBUSH NDAW   N/A     32  32 100 S13         N/A  WCI  22
$$
  *****  WEATHER ACROSS CENTRAL AND WEST MINNESOTA  *****

CITY           SKY/WX    TMP DP  RH WIND       PRES   REMARKS
FOSSTON        LGT SNOW  30  30 100 S10       29.70F WCI  21
BEMIDJI        LGT SNOW  32  31  95 SE9       29.72F WCI  24
PARK RAPIDS    LGT SNOW  33  30  88 S10       29.72F FOG     WCI  25
ELBOW LAKE     CLOUDY    32  32 100 W9        29.74F FOG     WCI  24
WADENA         CLOUDY    32  30  93 S9        29.73F FOG     WCI  24
DETROIT LAKES  CLOUDY    34  32  93 SW15      29.71F FOG     WCI  24
MOORHEAD       DRIZZLE   32  30  93 SW7       29.73S
FERGUS FALLS   SNOW      32  32 100 SW8       29.77F VSB 1/2 WCI  25
MORRIS MN      PTSUNNY   36  34  93 SW10      29.75F
STAPLES        CLOUDY    30  30 100 S12       29.75F FOG     WCI  21
$$
  *****  WEATHER ELSEWHERE ACROSS MINNESOTA  *****

CITY           SKY/WX    TMP DP  RH WIND       PRES   REMARKS
DULUTH         LGT SNOW  30  29  96 SE10      29.84F FOG     WCI  21
INTRNTL FALLS  LGT SNOW  30  27  88 SE8       29.79F VSB 3/4 WCI  22
ELY            LGT SNOW  30  28  93 SE8       29.83F WCI  23
CLOQUET        LGT SNOW  30  28  93 SE5       29.83F
WHEATON        CLOUDY   N/A N/A N/A SW10      29.77F
BRAINERD       SNOW      32  31  96 S8        29.77F VSB 1/2 WCI  25
HIBBING        LGT SNOW  28  26  92 SE9       29.82F FOG     WCI  19
ALEXANDRIA     CLOUDY    33  32  96 S15       29.76F WCI  23
SAINT CLOUD    CLOUDY    33  33 100 S10       29.81F FOG     WCI  25
MINNEAPOLIS    CLOUDY    34  32  92 S8        29.87F FOG
$$

  *****  WEATHER ACROSS SOUTH DAKOTA  *****

CITY           SKY/WX    TMP DP  RH WIND       PRES   REMARKS
SIOUX FALLS    SUNNY     38  31  76 W12       29.86F
BROOKINGS      SUNNY     36  30  79 W15       29.81F
WATERTOWN      SUNNY     33  28  81 W15       29.79S WCI  23
HURON          SUNNY     37  31  78 W7        29.84F
SISSETON         N/A     36  29  75 W15       29.74S
ABERDEEN       MOSUNNY   34  29  82 W13       29.80S WCI  25
MITCHELL       SUNNY     38  31  76 W12       29.88F
PIERRE         SUNNY     34  24  67 W9        29.86S
MOBRIDGE       SUNNY     32  21  64 W8        29.80R WCI  25
RAPID CITY     SUNNY     42  19  39 W10       29.86F
$$

  *****  SOME WEATHER IN NEARBY STATES *****

CITY           SKY/WX    TMP DP  RH WIND       PRES   REMARKS
GLASGOW MT     SUNNY     31  25  78 SE5       29.68F
GREAT FALLS MT CLOUDY    36  23  59 SW28G39   29.60F
CHEYENNE WY    SUNNY     31   8  38 S12       29.95F WCI  22
SCOTTSBLUFF NE SUNNY     39  18  42 W7        29.96F
OMAHA NE       PTSUNNY   36  31  82 SW7       29.98F
DES MOINES IA  CLOUDY    35  33  92 SW7       29.97F
DAVENPORT IA   SNOW      31  30  96 SE12      30.01F VSB 1/2 WCI  22
CHICAGO IL     SNOW      31  30  96 S5        30.04F VSB 1/4
EAU CLAIRE WI  SNOW      32  30  92 SE12      29.91F VSB 1/2 WCI  23
LA CROSSE WI   LGT SNOW  34  32  92 S12       29.95F FOG
$$

  *****  SOME NATIONAL WEATHER *****

CITY           SKY/WX    TMP DP  RH WIND       PRES   REMARKS
LA GUARDIA NY  FAIR      45  23  42 N9G18     30.21F
RALEIGH NC     LGT RAIN  46  32  58 CALM      30.26F
ATLANTA GA     LGT RAIN  45  45 100 E13       30.12F FOG
NEW ORLEANS LA LGT RAIN  66  66 100 SE6       29.90F FOG
OKLAHOMA CITY  PTSUNNY   47  42  83 N15       30.08S
ALBUQUERQUE NM SUNNY     36  13  38 N8        30.20R
SALT LAKE CITY PTSUNNY   34  20  56 SE16      30.14F WCI  24
LOS ANGELES CA MOSUNNY   58  34  40 VRB3      30.08S
BOISE ID       LGT RAIN  41  34  76 E12       29.95F
SEATTLE WA     LGT RAIN  38  36  92 E7        30.03R
$$

*** WEATHER ACROSS MANITOBA...SASKATCHEWAN AND ONTARIO ***
                ***ONTARIO***

CITY           SKY/WX    TMP DP  RH WIND       PRES   REMARKS
GERALDTON      FLURRIES  23  21  93 E7        30.03F WCI  15
THUNDER BAY    CLOUDY    34  25  69 SE12      29.97F
SIOUX LOOKOUT  SNOWSHWR  27  25  93 SE7       29.83F WCI  19
TORONTO        CLOUDY    36  27  69 SE6       30.23F
BIG TROUT LK   CLOUDY    23  21  93 S13G20    29.90F WCI  11
PICKLE LAKE    CLOUDY    27  23  86 S12       29.90F WCI  16
DRYDEN         FLURRIES  28  27  93 SE9G18    29.79F WCI  20
KENORA         LGT SNOW  28  27  93 SE12G17   29.73F WCI  18
$$
                *** MANITOBA***

CITY           SKY/WX    TMP DP  RH WIND       PRES   REMARKS
BRANDON        LGT SNOW  28  25  86 NW10      29.64S WCI  19
DAUPHIN        LGT SNOW  30  28  93 W6        29.65S WCI  24
ISLAND LAKE    FLURRIES  25  23  93 SE15      29.80  WCI  12
PILOT MOUND      N/A     27  25  93 W8          N/A  WCI  18
THE PAS        CLOUDY    27  25  93 SW3       29.64S
THOMPSON       LGT SNOW  25  23  93 SE3       29.70F
WINNIPEG       LGT SNOW  32  30  93 SE15      29.63F FOG     WCI  22
LYNN LAKE      LGT SNOW  19  19 100 SE6       29.61S WCI  11
CHURCHILL      CLOUDY     9   7  92 S10       29.87F WCI  -6
GILLAM         CLOUDY    21  19  93 SE5       29.81F WCI  15
$$
                ***SASKATCHEWAN***

CITY           SKY/WX    TMP DP  RH WIND       PRES   REMARKS
ESTEVAN        FOG       21  21 100 W8        29.70F VSB 3/4 WCI  12
KINDERSLEY     MOSUNNY   16  12  86 E3        29.62F
LLOYDMINSTER   PTCLDY    23  16  74 W15       29.58F WCI  10
PRINCE ALBERT  PTSUNNY   21  18  86 SW5       29.62S WCI  15
REGINA         MOSUNNY   19  19 100 SE7       29.67S WCI  10
YORKTON        CLOUDY    27  25  93 W8        29.66S WCI  18
N. BATTLEFORD  SUNNY     23  16  74 W8        29.64F WCI  14
LA RONGE       MOCLDY    25  21  86 S9        29.55F WCI  15
SASKATOON      PTSUNNY   23  19  86 W5        29.66S WCI  17
SWIFT CURRENT  MOSUNNY   19  18  93 SW13      29.58S WCI   7
$$
NOTE: THESE ARE AUTOMATED STATIONS WITH LIMITED QUALITY CONTROL
      "FAIR" INDICATES FEW OR NO CLOUDS BELOW 12,000 FEET WITH NO
      SIGNIFICANT WEATHER AND/OR OBSTRUCTIONS TO VISIBILITY.
      SKY/WX - SKY CONDITION AND SIGNIFICANT WEATHER.
      TMP - AIR TEMPERATURE.    DP   - DEWPOINT TEMPERATURE.
      RH  - RELATIVE HUMIDITY.  PRES - PRESSURE.
      HX  - HEAT INDEX.         WCI  - WIND CHILL INDEX.
$




USA.gov is the U.S. government's official web portal to all federal, state and local government web resources and services.